Regional Weather Roundup
Issued by NWS Charleston, SC

Current Version | Previous Version | Text Only | Print | Product List | Glossary Off
Versions: 1 2 3 4 5 6 7 8 9 10 11 12 13 14 15 16 17 18 19 20 21 22 23 24 25 26 27 28 29 30 31 32 33 34 35 36 37 38 39 40 41 42 43 44 45 46 47 48 49 50

000
ASUS42 KCHS 242327
RWRCHS

REGIONAL WEATHER ROUNDUP
NATIONAL WEATHER SERVICE CHARLESTON SC
600 PM EST TUE JAN 24 2017

NOTE: "FAIR" INDICATES FEW OR NO CLOUDS BELOW 12,000 FEET WITH NO
SIGNIFICANT WEATHER AND/OR OBSTRUCTIONS TO VISIBILITY.

NOT ALL STATIONS ARE QUALITY CONTROLLED. USE DATA WITH CAUTION...
ESPECIALLY DEWPOINT OBSERVATIONS.

SCZ027-030-031-034>040-042>050-250000-
...SOUTHEAST SOUTH CAROLINA...

CITY           SKY/WX    TMP DP  RH WIND       PRES   REMARKS
N CHARLESTON   CLEAR     61  43  51 W6        29.78R
WATERFRONT PRK   N/A     65  47  52 W5        29.76R
MOUNT PLEASANT LGT RAIN  63  46  55 W6        29.79R
JOHNS ISLAND   FAIR      61  46  59 CALM      29.80R
PINOPOLIS        N/A     63  48  59 W8        29.67R
MONCKS CORNER  FAIR      55  45  67 CALM      29.79R
SUMMERVILLE    FAIR      59  46  63 SW3       29.80R
BEAUFORT MCAS  CLEAR     62  44  51 W5        29.80R
BEAUFORT ARPT  FAIR      59  45  58 W6        29.81R
HILTON HEAD IS CLEAR     61  45  55 W5        29.81R
WALTERBORO     CLEAR     59  43  55 W6        29.82R
ALLENDALE      FAIR      59  46  63 CALM      29.81R

...SOUTHERN MIDLANDS AND PEE DEE...

CITY           SKY/WX    TMP DP  RH WIND       PRES   REMARKS
GEORGETOWN     FAIR      55  43  62 W5        29.78R
KINGSTREE      FAIR      59  37  44 W3        29.77R
ORANGEBURG     CLEAR     61  42  49 W8        29.78R
BARNWELL       FAIR      59  48  67 CALM      29.81R
AIKEN          FAIR      54  41  62 W5        29.84R
MANNING        FAIR      57  43  58 W3        29.78R
COLUMBIA       CLEAR     61  42  49 SW5       29.77R
SUMTER         CLEAR     60  41  49 W8        29.75R
FLORENCE       CLEAR     61  42  49 W5        29.75R
MYRTLE BEACH   CLEAR     63  41  45 NW7       29.75R
N MYRTLE BEACH CLEAR     60  42  51 W3        29.73R

$$

GAZ063-065-086>088-099>101-113>116-118-119-134>141-150-250000-
...SOUTHEAST GEORGIA...

CITY           SKY/WX    TMP DP  RH WIND       PRES   REMARKS
SAVANNAH ARPT  CLEAR     60  43  53 W6        29.81R
HUNTER AAF     CLEAR     59  50  70 W6        29.79R
FORT STEWART   CLEAR     62  43  48 CALM      29.80R
STATESBORO     CLEAR     62  46  57 W5        29.84R
SYLVANIA       CLEAR    N/A N/A N/A W3        29.84R
CLAXTON        FAIR      60  47  61 SW5       29.85R

...CSRA...CENTRAL AND FAR SOUTHEAST GEORGIA...

CITY           SKY/WX    TMP DP  RH WIND       PRES   REMARKS
THOMSON        CLEAR     58  45  62 CALM      29.87R
AUGUSTA-BUSH   CLEAR     64  41  42 SW7       29.80R
AUGUSTA-DANIEL CLEAR     64  38  38 W3        29.81R
SWAINSBORO     FAIR      59  45  58 W5        29.86R
VIDALIA        CLEAR     61  46  59 W3        29.86R
EASTMAN        FAIR      61  32  33 CALM      29.90R
HAZLEHURST     FAIR      61  47  59 CALM      29.87R
ALMA           CLEAR     62  43  49 W5        29.85R
WAYCROSS       CLEAR     63  48  59 W5        29.87R
JESUP          FAIR      61  43  51 W5        29.85R
BAXLEY         FAIR      63  50  63 W3        29.87R
BRUNSWICK      CLEAR     63  46  55 W5        29.85R
SAINT SIMONS   CLEAR     65  43  44 W6        29.84R

$$

SCZ027-028-034-036>038-045-046-048>050-GAZ119-141-250000-
...LAKE AND SUPPLEMENTAL COASTAL OBSERVATIONS...

STATION/POSITION TIME  TEMP    WIND        PRES    WAVE   SWELL
                       AIR SEA DIR/SP/G            HT/PER HT/PER/DIR
                 (UTC) (F)     (DEG/KT/KT) (MB)    (FT/S) (FT/S/D)
WINYAH BAY       2245   62     280/  4     1007.0R
LAKE MURRAY      2230   62     250/  7/  9 1007.8R
ACE BASIN NERRS  2245   62     250/  2     1009.0R
FORT PULASKI     2300   63 59  250/  4/  5 1009.6
SAPELO ISLAND    2300   64     260/  8     1010.0

$$

ANZ835-935-AMZ111-154-330-350-352-354-370-450-454-472-250000-
...C-MAN AND BUOY OBSERVATIONS...

STATION/POSITION TIME  TEMP    WIND        PRES    WAVE   SWELL
                       AIR SEA DIR/SP/G            HT/PER HT/PER/DIR
                 (UTC) (F)     (DEG/KT/KT) (MB)    (FT/S) (FT/S/D)
BUOY 41004       2250   64 68  260/ 19/ 23 1007.2R   5/ 5   2/250/11
BUOY 41008       2250   62 60  250/  6/  8 1009.4R   1/13
FOLLY BEACH CMAN 2300   62     250/  6/  7 1009.2R
CAPERS NEARSHORE 2208   62 57  280/  8/ 10 1007.1R
FRIPP NEARSHORE  2308   61 58  270/  6/  8 1009.0R


STATION/POSITION TIME  TEMP    WIND        PRES    WAVE   SWELL
                       AIR SEA DIR/SP/G            HT/PER HT/PER/DIR
                 (UTC) (F)     (DEG/KT/KT) (MB)    (FT/S) (FT/S/D)
5E ST. MARYS GA  2300      63                N/A     1/13   2/ 80/13
FRYING PAN BUOY  2310   64 69  280/ 17/ 21 1006.6
BUOY 41025       2250   54 72  300/ 16/ 19 1003.3R   7/11   5/100/11
CAPE LOOKOUT NC  2300   55     280/  7/  8 1004.5R
BUOY 41002       2250   66 70  320/ 25/ 31 1004.5R  14/ 9   8/ 20/12
BUOY 41010       NOT AVBL
ST AUGUSTINE FL  2300   67 64  270/  4/  6 1011.9R


$$




USA.gov is the U.S. government's official web portal to all federal, state and local government web resources and services.